Location: Kershaw
(34.5481°N, 80.5823°W)
Time: 22:32:10
(UTC+00:00)

Transit 4A - Pass Details

Date: 12 October 2022
Orbit: 871 x 972 km, 66.8° (Epoch: 08 December)

Event Time Altitude Azimuth Distance (km) Brightness Sun altitude
Rises 23:37:44 0° 174° (S) 3,612 10.9 -10.3°
Reaches altitude 10° 23:40:40 10° 163° (SSE) 2,656 10.1 -10.9°
Maximum altitude 23:45:44 27° 107° (ESE) 1,700 8.7 -12.0°
Drops below altitude 10° 23:50:44 10° 52° (NE) 2,611 9.8 -13.0°
Enters shadow 23:50:57 - 50° (NE) 2,680 9.9 -13.0°
